Regional Weather Roundup
Issued by NWS Little Rock, AR

Home | Current Version | Previous Version | Graphics & Text | Print | Product List | Glossary On
Versions: 1 2 3 4 5 6 7 8 9 10 11 12 13 14 15 16 17 18 19 20 21 22 23 24 25 26 27 28 29 30 31 32 33 34 35 36 37 38 39 40 41 42 43 44 45 46 47 48 49 50
000
ASUS44 KLZK 022105
RWRLZK

WEATHER ROUNDUP FOR ARKANSAS
NATIONAL WEATHER SERVICE LITTLE ROCK AR
400 PM CDT THU JUL 02 2015

NOTE: "FAIR" INDICATES FEW OR NO CLOUDS BELOW 12,000 FEET WITH NO
SIGNIFICANT WEATHER AND/OR OBSTRUCTIONS TO VISIBILITY.

ARZ001-003-010-029-022200-
NORTHWEST ARKANSAS

CITY           SKY/WX    TMP DP  RH WIND       PRES   REMARKS
FAYETTEVILLE   PTSUNNY   85  74  69 SW13      29.89F HX  92
FORT SMITH     PTSUNNY   89  70  53 SW14G21   29.86F HX  94
HARRISON       CLOUDY    84  76  76 VRB3      29.88F HX  93
BENTONVILLE    PTSUNNY   88  72  58 NW13      29.90R HX  94
ROGERS         CLOUDY    86  75  69 W10       29.89S HX  95
SILOAM SPGS    CLOUDY    86  72  62 W7          N/A  HX  92
HIGHFILL       PTSUNNY   87  75  67 W9        29.88S HX  96
SPRINGDALE     PTSUNNY   86  73  66 SW12      29.91S HX  93
$$

ARZ004-005-016-022200-
NORTH CENTRAL ARKANSAS

CITY           SKY/WX    TMP DP  RH WIND       PRES   REMARKS
BATESVILLE     PTSUNNY   88  73  62 SW12      29.84F HX  96
FLIPPIN          N/A     84  73  70 W10G16    29.84S HX  91
MTN HOME       PTSUNNY   83  75  77 VRB3      29.85F HX  90
$$

ARZ040-041-022200-
WEST CENTRAL ARKANSAS

CITY           SKY/WX    TMP DP  RH WIND       PRES   REMARKS
MENA           PTSUNNY   86  70  58 SW7G16    29.94S HX  90
MOUNT IDA      SUNNY     87  68  52 W8G20     29.90F HX  90
$$

ARZ009-017-025-026-028-022200-
NORTHEAST ARKANSAS

CITY           SKY/WX    TMP DP  RH WIND       PRES   REMARKS
JONESBORO      PTSUNNY   86  74  67 SW12      29.84F HX  94
NEWPORT        MOSUNNY   90  75  61 W13       29.84F HX 100
WALNUT RIDGE   MOSUNNY   86  73  66 SW10      29.83F HX  93
BLYTHEVILLE    CLOUDY    82  72  71 SW10G21   29.86S HX  87
$$

ARZ022-023-033-042-044-022200-
CENTRAL ARKANSAS

CITY           SKY/WX    TMP DP  RH WIND       PRES   REMARKS
LITTLE ROCK    MOSUNNY   91  65  41 W20G29    29.87F HX  93
N LITTLE ROCK  MOSUNNY   89  73  57 SW10G21   29.87F HX  97
JACKSONVILLE   PTSUNNY   90  69  50 SW21      29.86F HX  95
SEARCY         PTSUNNY   90  73  57 W12       29.86F HX  98
HOT SPRINGS    SUNNY     89  68  49 SW13G22   29.92S HX  93
RUSSELLVILLE   CLOUDY    89  72  56 SW6G18    29.85F HX  96
CLINTON        FAIR      88  77  70 SW6       29.86F HX 100
$$

ARZ036-022200-
EAST ARKANSAS

CITY           SKY/WX    TMP DP  RH WIND       PRES   REMARKS
WEST MEMPHIS   PTSUNNY   87  72  60 SW8G20    29.86S HX  93
$$

ARZ050-053-066-070-073-022200-
SOUTHWEST ARKANSAS

CITY           SKY/WX    TMP DP  RH WIND       PRES   REMARKS
ARKADELPHIA    FAIR      91  71  51 S14       29.92F HX  97
CAMDEN         MOSUNNY   91  68  46 MISG      29.93F HX  95
TEXARKANA      MOSUNNY   90  69  50 SW15G24   29.94F HX  94
EL DORADO      MOSUNNY   88  69  53 SW13G23   29.95F HX  92
DE QUEEN       PTSUNNY   88  72  58 SW10      29.91S HX  94
$$

ARZ056-057-069-022200-
SOUTHEAST ARKANSAS

CITY           SKY/WX    TMP DP  RH WIND       PRES   REMARKS
PINE BLUFF     MOSUNNY   89  71  55 SW10      29.90F HX  95
STUTTGART      PTSUNNY   88  68  51 MISG      29.88S HX  91
MONTICELLO     MOSUNNY   87  71  58 SW12G21   29.93F HX  93

$$





USA.gov is the U.S. government's official web portal to all federal, state and local government web resources and services.